Home   Weather   Lucerne   Past weeks

Flag for Switzerland Past Weather in Lucerne, Lucerne, Switzerland — Yesterday and Last 2 Weeks

Now
64 °F

Mild.


Feels Like: 64 °F
Forecast: 56 / 68 °F
Wind: 1 mph from Northwest

Location: Giswil

Current Time: Aug 19, 2017 at 1:55:32 am

Latest Report: Aug 19, 2017 at 1:00 am


Visibility: N/A

Pressure: 30.09 "Hg

Humidity: 99%

Dew Point: 63 °F

Location of LucerneLocation

Past Weather in Lucerne — Graph

°F

Lucerne Temperature Yesterday

Maximum temperature yesterday: 85 °F (at 4:00 pm)
Minimum temperature yesterday: 59 °F (at 7:00 am)
Average temperature yesterday: 70 °F

High & Low Weather Summary for the Past Weeks

 TemperatureHumidityPressure
High85 °F (Aug 18, 4:00 pm)100% (Aug 6, 10:00 pm)30.23 "Hg (Aug 6, 10:00 pm)
Low47 °F (Aug 7, 6:00 am)47% (Aug 7, 6:00 pm)29.81 "Hg (Aug 18, 5:00 pm)
Average64 °F85%30.07 "Hg
* Reported Aug 4 12:00 am — Aug 19 12:00 am, Lucerne. Weather by CustomWeather, © 2017

Note: Actual official high and low records may vary slightly from our data, if they occured in-between our weather recording intervals... More about our weather records

Advertising

Lucerne Weather History for the Previous 24 Hours

Scroll right to see more
 ConditionsComfort  
Time TempWeatherWind HumidityBarometerVisibility
12:00 am
Sat, Aug 19
64 °FMild.1 mph99%30.10 "HgN/A
11:00 pm
Fri, Aug 18
64 °FMild.1 mph99%30.09 "HgN/A
10:00 pm65 °FMild.1 mph99%30.08 "HgN/A
9:00 pm65 °FMild.2 mph99%30.05 "HgN/A
8:00 pm69 °FMild.7 mph82%30.04 "HgN/A
7:00 pm77 °FWarm.1 mph77%29.85 "HgN/A
6:00 pm80 °FWarm.2 mph74%29.81 "HgN/A
5:00 pm83 °FWarm.1 mph55%29.81 "HgN/A
4:00 pm85 °FWarm.1 mph49%29.83 "HgN/A
3:00 pm84 °FWarm.2 mph48%29.87 "HgN/A
2:00 pm85 °FWarm.2 mph48%29.88 "HgN/A
1:00 pm81 °FWarm.1 mph55%29.91 "HgN/A
12:00 pm79 °FWarm.2 mph58%29.95 "HgN/A
11:00 am75 °FMild.3 mph75%29.99 "HgN/A
10:00 am72 °FMild.2 mph82%30.02 "HgN/A
9:00 am68 °FMild.1 mph92%30.04 "HgN/A
8:00 am63 °FMild.1 mph99%30.06 "HgN/A
7:00 am59 °FCool.1 mph99%30.08 "HgN/A
6:00 am60 °FCool.1 mph100%30.08 "HgN/A
5:00 am60 °FCool.No wind99%30.08 "HgN/A
4:00 am60 °FCool.1 mph99%30.09 "HgN/A
3:00 am62 °FCool.No wind99%30.09 "HgN/A
2:00 am63 °FMild.2 mph99%30.10 "HgN/A
1:00 am63 °FMild.1 mph99%30.09 "HgN/A
Weather by CustomWeather, © 2017

See weather overviewHow to use our weather pages